Location: �perlecques
(50.8057°N, 2.1521°E)
Time: 19:05:24
(UTC+00:00)

VELOX 1 - Pass Details

Date: 30 September 2021
Orbit: 627 x 642 km, 98.3° (Epoch: 21 October)

Event Time Altitude Azimuth Distance (km) Brightness Sun altitude
Exits shadow 04:34:44 18° 276° (W) 1,555 ? -12.7°
Drops below altitude 10° 04:37:23 10° 313° (NW) 2,016 ? -12.3°
Sets 04:40:13 0° 333° (NNW) 2,928 ? -11.9°
